Weather in Katkovo

Russia / Novosibirsk Oblast     55°07′13″N   82°32′42″E
temp.,
°C
wind,
m/s
gust,
m/s
humid.,
%
clouds,
%
prec.,
mm/h
press.,
hPa
HPBL,
m
28 february, sun
sun2801:00−29ssw349564 0.0 103938
04:00−30ssw349666 0.0 103831
07:00−30s349762 0.0 103838
10:00−28sse359578 0.0 1037118
13:00−23se479369 0.0 1034264
16:00−19se479190 0.0 1031379
19:00−16ese369695 0.1 1028208
22:00−15se3797100 0.3 1025191
1 march, mon
mon101:00−13se4995100 0.6 1022290
04:00−11se5994100 0.3 1018344
07:00−9se5995100 1.6 1014422
10:00−6se5995100 1.8 1011528
13:00−4ese61096100 4.0 1008461
16:00−1n1299100 3.6 1006134
19:00−3nne4697100 5.8 1006175
22:00−8nne5895100 1.3 1007234
2 march, tue
tue201:00−10n4795100 1.8 1009242
04:00−13n359691 0.2 1011137
07:00−16n339792 0.5 101455
10:00−16n239685 0.1 1016115
13:00−14w229089 0.2 1018280
16:00−12wsw1287100 0.1 1018340
19:00−12ssw1196100 0.3 101827
22:00−14wsw119693 0.1 101720
3 march, wed
wed301:00−15wsw119692 0.1 101620
04:00−15sw0097100 0.2 101520
07:00−15ene119699 0.4 101620
10:00−14n1195100 0.2 101659
13:00−11wnw1191100 0.4 1017245
16:00−10wsw2389100 0.2 1017358
19:00−11sw239696 0.4 101962
22:00−15sw349478 0.1 102247
4 march, thu
thu401:00−17ssw449677 0.1 102383
04:00−20ssw449633 0.0 102378
07:00−21sse479736 0.0 1024102
10:00−16sse5109397 0.0 1023278
13:00−12sse6109198 0.0 1022390
16:00−8sse61090100 0.0 1020606
19:00−8sse51290100 0.0 1018463
22:00−8sse61287100 0.0 1016430